When you browse on this site, cookies collect data to enhance your experience and personalize the content and advertising you see.
Visit our Privacy Policy to learn more. By continuing to use the site, you agree to this use of cookies and data.
  • In Czech Republic
  • List of Countries
  • For 7 days
  • Water Temperature
  • Weather Map
  • Weather Widgets
  • user-avatar
    Login

    Hourly Weather Tyurinka

    Today, 21 February, Friday

    Time Temperature Precipitation Wind Pressure Humidity
    00:00 -2°C° 0 mm 2 mps 749 mmHg 96%
    01:00 -2°C° 0 mm 2 mps 749 mmHg 95%
    02:00 -2°C° 0 mm 2 mps 749 mmHg 95%
    03:00 -2°C° 0 mm 2 mps 749 mmHg 95%
    04:00 -2°C° 0 mm 2 mps 749 mmHg 95%
    05:00 -3°C° 0 mm 2 mps 749 mmHg 95%
    06:00 -2°C° 0 mm 2 mps 749 mmHg 95%
    07:00 -2°C° 0 mm 2 mps 749 mmHg 95%
    08:00 -2°C° 0 mm 2 mps 750 mmHg 95%
    15:00 +1°C° 0 mm 2 mps 749 mmHg 95%
    16:00 +1°C° 0 mm 2 mps 749 mmHg 96%
    17:00 -1°C° 0 mm 2 mps 749 mmHg 97%
    18:00 -1°C° 0 mm 2 mps 750 mmHg 96%
    19:00 -1°C° 0 mm 2 mps 750 mmHg 96%
    20:00 -1°C° 0 mm 2 mps 751 mmHg 96%
    21:00 -1°C° 0 mm 2 mps 751 mmHg 96%
    22:00 -1°C° 0 mm 2 mps 751 mmHg 97%
    23:00 -1°C° 0 mm 2 mps 751 mmHg 97%

    Tomorrow, 22 February, Saturday

    Time Temperature Precipitation Wind Pressure Humidity
    00:00 -1°C° 0 mm 2 mps 751 mmHg 96%
    01:00 -1°C° 0 mm 2 mps 751 mmHg 96%
    02:00 -1°C° 0 mm 2 mps 751 mmHg 95%
    03:00 -2°C° 0 mm 2 mps 751 mmHg 95%
    04:00 -2°C° 0 mm 2 mps 751 mmHg 95%
    05:00 -2°C° 0 mm 2 mps 751 mmHg 94%
    06:00 -2°C° 0 mm 2 mps 751 mmHg 94%
    07:00 -2°C° 0 mm 2 mps 752 mmHg 93%
    08:00 -2°C° 0 mm 2 mps 752 mmHg 93%
    09:00 -1°C° 0 mm 2 mps 752 mmHg 92%
    10:00 -1°C° 0 mm 3 mps 752 mmHg 91%
    11:00 0°C° 0 mm 3 mps 752 mmHg 90%
    12:00 0°C° 0 mm 3 mps 751 mmHg 88%
    13:00 -1°C° 0 mm 4 mps 751 mmHg 87%
    14:00 -1°C° 0 mm 4 mps 751 mmHg 86%
    15:00 -1°C° 0 mm 4 mps 750 mmHg 86%
    16:00 -1°C° 0 mm 4 mps 750 mmHg 86%
    17:00 -2°C° 0 mm 4 mps 749 mmHg 85%
    18:00 -2°C° 0 mm 4 mps 749 mmHg 85%
    19:00 -4°C° 0 mm 5 mps 749 mmHg 84%
    20:00 -4°C° 0 mm 5 mps 749 mmHg 84%
    21:00 -4°C° 0 mm 6 mps 748 mmHg 83%
    22:00 -4°C° 0 mm 6 mps 747 mmHg 82%
    23:00 -4°C° 0 mm 6 mps 746 mmHg 82%

    Day after tomorrow, 23 February, Sunday

    Time Temperature Precipitation Wind Pressure Humidity
    00:00 -4°C° 0 mm 7 mps 745 mmHg 82%
    01:00 -5°C° 0 mm 8 mps 744 mmHg 83%
    02:00 -5°C° 0 mm 8 mps 743 mmHg 83%
    03:00 -5°C° 0 mm 9 mps 741 mmHg 84%
    04:00 -5°C° 0 mm 9 mps 740 mmHg 85%
    05:00 -4°C° 0 mm 10 mps 739 mmHg 86%
    06:00 -4°C° 0.6 mm 10 mps 738 mmHg 89%
    07:00 -4°C° 0.6 mm 10 mps 737 mmHg 91%
    08:00 -4°C° 0.6 mm 11 mps 736 mmHg 94%
    09:00 -4°C° 0.6 mm 10 mps 735 mmHg 95%
    10:00 -4°C° 0.6 mm 10 mps 734 mmHg 95%
    11:00 -4°C° 0.6 mm 10 mps 733 mmHg 96%
    12:00 -3°C° 0.5 mm 9 mps 732 mmHg 96%
    13:00 -2°C° 0.5 mm 8 mps 732 mmHg 97%
    14:00 -2°C° 0.5 mm 8 mps 731 mmHg 97%
    15:00 -2°C° 0.2 mm 6 mps 731 mmHg 95%
    16:00 -1°C° 0.2 mm 5 mps 731 mmHg 93%
    17:00 -1°C° 0.2 mm 4 mps 731 mmHg 90%
    18:00 -2°C° 0 mm 4 mps 732 mmHg 91%
    19:00 -2°C° 0 mm 4 mps 732 mmHg 92%
    20:00 -2°C° 0 mm 5 mps 732 mmHg 92%
    21:00 -3°C° 0 mm 4 mps 732 mmHg 92%
    22:00 -3°C° 0 mm 4 mps 732 mmHg 91%
    23:00 -3°C° 0 mm 4 mps 732 mmHg 90%

    24 February, Monday

    Time Temperature Precipitation Wind Pressure Humidity
    00:00 -3°C° 0 mm 4 mps 732 mmHg 90%
    01:00 -4°C° 0 mm 4 mps 732 mmHg 91%
    02:00 -4°C° 0 mm 4 mps 731 mmHg 91%
    03:00 -4°C° 0 mm 4 mps 731 mmHg 92%
    04:00 -4°C° 0 mm 4 mps 731 mmHg 93%
    05:00 -4°C° 0 mm 4 mps 731 mmHg 94%
    06:00 -4°C° 0 mm 4 mps 731 mmHg 93%
    07:00 -5°C° 0 mm 5 mps 731 mmHg 93%
    08:00 -5°C° 0 mm 5 mps 731 mmHg 92%
    09:00 -4°C° 0 mm 5 mps 731 mmHg 90%
    10:00 -2°C° 0 mm 5 mps 731 mmHg 88%
    11:00 -2°C° 0 mm 5 mps 731 mmHg 86%
    12:00 -2°C° 0 mm 5 mps 732 mmHg 84%
    13:00 -1°C° 0 mm 5 mps 732 mmHg 83%
    14:00 -1°C° 0 mm 5 mps 732 mmHg 82%
    15:00 -1°C° 0 mm 4 mps 732 mmHg 86%
    16:00 -2°C° 0 mm 4 mps 732 mmHg 90%
    17:00 -2°C° 0 mm 4 mps 733 mmHg 95%
    18:00 -3°C° 0 mm 4 mps 733 mmHg 93%
    19:00 -3°C° 0 mm 4 mps 734 mmHg 92%
    20:00 -2°C° 0 mm 3 mps 735 mmHg 91%
    21:00 -2°C° 0 mm 3 mps 735 mmHg 90%
    22:00 -4°C° 0 mm 3 mps 735 mmHg 90%
    23:00 -4°C° 0 mm 4 mps 736 mmHg 90%

    25 February, Tuesday

    Time Temperature Precipitation Wind Pressure Humidity
    00:00 -4°C° 0 mm 4 mps 736 mmHg 90%
    01:00 -4°C° 0 mm 4 mps 737 mmHg 91%
    02:00 -4°C° 0 mm 4 mps 737 mmHg 92%
    03:00 -4°C° 0 mm 4 mps 738 mmHg 90%
    04:00 -5°C° 0 mm 4 mps 738 mmHg 88%
    05:00 -5°C° 0 mm 4 mps 739 mmHg 85%
    06:00 -5°C° 0 mm 4 mps 740 mmHg 85%
    07:00 -5°C° 0 mm 4 mps 740 mmHg 84%
    08:00 -6°C° 0 mm 5 mps 741 mmHg 84%
    09:00 -5°C° 0 mm 4 mps 741 mmHg 82%
    10:00 -4°C° 0 mm 4 mps 741 mmHg 80%
    11:00 -3°C° 0 mm 4 mps 742 mmHg 77%
    12:00 -2°C° 0 mm 3 mps 742 mmHg 76%
    13:00 -2°C° 0 mm 3 mps 742 mmHg 75%
    14:00 -2°C° 0 mm 3 mps 742 mmHg 74%
    15:00 -2°C° 0 mm 2 mps 742 mmHg 75%
    16:00 -3°C° 0 mm 2 mps 742 mmHg 77%
    17:00 -3°C° 0 mm 2 mps 742 mmHg 79%
    18:00 -4°C° 0 mm 2 mps 742 mmHg 80%
    19:00 -5°C° 0 mm 3 mps 743 mmHg 80%
    20:00 -5°C° 0 mm 3 mps 743 mmHg 81%
    21:00 -5°C° 0 mm 4 mps 743 mmHg 80%
    22:00 -5°C° 0 mm 4 mps 742 mmHg 80%
    23:00 -5°C° 0 mm 4 mps 742 mmHg 79%

    26 February, Wednesday

    Time Temperature Precipitation Wind Pressure Humidity
    00:00 -6°C° 0 mm 5 mps 742 mmHg 78%
    01:00 -6°C° 0 mm 5 mps 742 mmHg 77%
    02:00 -6°C° 0 mm 6 mps 741 mmHg 76%
    03:00 -6°C° 0 mm 6 mps 741 mmHg 76%
    04:00 -6°C° 0 mm 6 mps 741 mmHg 77%
    05:00 -5°C° 0 mm 6 mps 740 mmHg 77%
    06:00 -5°C° 0 mm 6 mps 740 mmHg 80%
    07:00 -5°C° 0 mm 6 mps 740 mmHg 83%
    08:00 -5°C° 0 mm 6 mps 740 mmHg 86%
    09:00 -4°C° 0 mm 6 mps 740 mmHg 85%
    10:00 -4°C° 0 mm 7 mps 740 mmHg 85%
    11:00 -3°C° 0 mm 7 mps 740 mmHg 85%
    12:00 -3°C° 0 mm 7 mps 740 mmHg 82%
    13:00 -2°C° 0 mm 7 mps 739 mmHg 80%
    14:00 -2°C° 0 mm 6 mps 739 mmHg 77%
    15:00 -2°C° 0 mm 6 mps 739 mmHg 78%
    16:00 -2°C° 0 mm 6 mps 739 mmHg 78%
    17:00 -2°C° 0 mm 6 mps 738 mmHg 79%
    18:00 -2°C° 0 mm 6 mps 738 mmHg 79%
    19:00 -2°C° 0 mm 6 mps 738 mmHg 79%
    20:00 -3°C° 0 mm 7 mps 738 mmHg 79%
    21:00 -3°C° 0.1 mm 7 mps 738 mmHg 84%
    22:00 -3°C° 0.1 mm 7 mps 737 mmHg 89%
    23:00 -4°C° 0.1 mm 8 mps 737 mmHg 94%
    Show more